Friday Harbor, WA

4:27 PM PST on December 03, 2016 (GMT -0800)
Friday Harbor

Weather History for KFHR - February, 2012

Change the Weather History Date:

Wednesday, February 15, 2012

  Actual Average Record
Temperature  
Mean Temperature 40 °F -  
Max Temperature 48 °F 45 °F 52 °F (2003)
Min Temperature 32 °F 34 °F 27 °F (2005)
Degree Days  
Heating Degree Days 25    
Moisture  
Dew Point 35 °F    
Average Humidity 86    
Maximum Humidity 93    
Minimum Humidity 66    
Precipitation  
Precipitation 0.00 in - - ()
Sea Level Pressure  
Sea Level Pressure 30.31 in    
Wind  
Wind Speed 1 mph (SSE)    
Max Wind Speed 9 mph    
Max Gust Speed -    
Visibility 8 miles    
Events      
Averages and records for this station are not official NWS values.
T = Trace of Precipitation, MM = Missing Value Source: NWS Daily Summary

Daily Weather History Graph

Daily Weather History Graph

Search for Another Location

Airport or City:

Trip Planner

Search our weather history database for the weather conditions in past years. The results will help you decide how hot, cold, wet, or windy it might be!

Date:

Astronomy

Feb. 15, 2012 Rise Set
Actual Time 7:20 AM PST 5:33 PM PST
Civil Twilight 6:47 AM PST 6:05 PM PST
Nautical Twilight 6:11 AM PST 6:42 PM PST
Astronomical Twilight 5:34 AM PST 7:18 PM PST
Moon 2:35 AM PST (2/15) 11:16 AM PST (2/15)
Length of Visible Light 11h 17m
Length of Day
10h 12m
Last Quarter, 38% of the Moon is Illuminated
Feb 15
Last Quarter
Feb 21
New
Feb 29
First Quarter
Mar 8
Full
Mar 14
Last Quarter

Hourly Weather History & Observations

Time (PST) Temp. Windchill Dew Point Humidity Pressure Visibility Wind Dir Wind Speed Gust Speed Precip Events Conditions
12:16 AM 32.0 °F - 30.2 °F 93% 30.21 in 2.5 mi Calm Calm - N/A   Partly Cloudy
12:31 AM 33.8 °F - 30.2 °F 87% 30.22 in 4.0 mi Calm Calm - N/A   Partly Cloudy
12:53 AM 35.1 °F - 33.1 °F 92% 30.22 in 9.0 mi Calm Calm - N/A   Clear
1:15 AM 33.8 °F - 30.2 °F 87% 30.23 in 1.8 mi Calm Calm - N/A   Clear
1:27 AM 33.8 °F - 30.2 °F 87% 30.23 in 2.0 mi Calm Calm - N/A   Clear
1:41 AM 33.8 °F - 30.2 °F 87% 30.24 in 5.0 mi Calm Calm - N/A   Partly Cloudy
1:50 AM 33.8 °F - 32.0 °F 93% 30.24 in 1.8 mi Calm Calm - N/A   Scattered Clouds
1:53 AM 34.0 °F - 32.0 °F 92% 30.25 in 1.8 mi Calm Calm - N/A   Mostly Cloudy
2:02 AM 33.8 °F - 32.0 °F 93% 30.24 in 2.5 mi Calm Calm - N/A   Mostly Cloudy
2:14 AM 33.8 °F - 32.0 °F 93% 30.25 in 5.0 mi Calm Calm - N/A   Overcast
2:53 AM 35.1 °F - 33.1 °F 92% 30.26 in 4.0 mi Calm Calm - N/A   Overcast
3:46 AM 37.4 °F - 35.6 °F 93% 30.25 in 2.5 mi Calm Calm - N/A   Overcast
3:53 AM 37.0 °F - 35.1 °F 93% 30.25 in 4.0 mi Calm Calm - N/A   Overcast
4:53 AM 39.0 °F - 37.0 °F 93% 30.28 in 9.0 mi Calm Calm - N/A   Overcast
5:15 AM 39.2 °F - 37.4 °F 93% 30.29 in 9.0 mi Calm Calm - N/A   Overcast
5:51 AM 39.2 °F - 37.4 °F 93% 30.29 in 7.0 mi Calm Calm - N/A   Overcast
5:53 AM 39.9 °F - 37.0 °F 89% 30.30 in 7.0 mi Calm Calm - N/A   Overcast
6:53 AM 37.9 °F - 36.0 °F 93% 30.32 in 10.0 mi Calm Calm - N/A   Overcast
7:53 AM 37.9 °F - 36.0 °F 93% 30.35 in 10.0 mi Calm Calm - N/A   Overcast
8:53 AM 42.1 °F 39.2 °F 39.0 °F 89% 30.37 in 10.0 mi SSW 4.6 mph - N/A   Overcast
9:53 AM 45.0 °F 42.6 °F 39.0 °F 80% 30.38 in 10.0 mi SSW 4.6 mph - N/A   Overcast
10:08 AM 44.6 °F 40.7 °F 39.2 °F 81% 30.38 in 10.0 mi South 6.9 mph - N/A   Overcast
10:49 AM 44.6 °F 42.2 °F 39.2 °F 81% 30.38 in 10.0 mi Variable 4.6 mph - N/A   Overcast
10:53 AM 45.0 °F 41.8 °F 39.0 °F 80% 30.38 in 10.0 mi SSW 5.8 mph - N/A   Overcast
11:53 AM 45.0 °F 41.8 °F 39.0 °F 80% 30.39 in 10.0 mi SE 5.8 mph - N/A   Overcast
12:53 PM 46.0 °F 41.4 °F 37.9 °F 73% 30.37 in 10.0 mi SE 9.2 mph - N/A   Mostly Cloudy
1:53 PM 48.0 °F - 37.9 °F 68% 30.37 in 10.0 mi ESE 5.8 mph - N/A   Clear
2:53 PM 48.0 °F - 37.0 °F 66% 30.34 in 10.0 mi SSE 6.9 mph - N/A   Clear
3:53 PM 46.9 °F - 37.0 °F 68% 30.35 in 10.0 mi SE 5.8 mph - N/A   Clear
4:53 PM 45.0 °F 42.6 °F 36.0 °F 71% 30.34 in 10.0 mi SSE 4.6 mph - N/A   Clear
5:53 PM 39.9 °F - 35.1 °F 83% 30.35 in 10.0 mi Calm Calm - N/A   Clear
6:53 PM 36.0 °F - 33.1 °F 89% 30.36 in 10.0 mi Calm Calm - N/A   Clear
7:53 PM 37.0 °F - 35.1 °F 93% 30.35 in 10.0 mi Calm Calm - N/A   Clear
8:53 PM 37.0 °F - 35.1 °F 93% 30.35 in 10.0 mi Calm Calm - N/A   Clear
9:53 PM 41.0 °F 39.0 °F 37.0 °F 86% 30.33 in 10.0 mi ENE 3.5 mph - N/A   Clear
10:53 PM 42.1 °F 37.1 °F 36.0 °F 79% 30.31 in 10.0 mi ESE 8.1 mph - N/A   Clear
11:53 PM 42.1 °F 37.7 °F 35.1 °F 76% 30.30 in 10.0 mi East 6.9 mph - N/A   Clear